User: anonymous   Login
Location: Twentynine Palms Airport
(34.1316°N, 115.9458°W)
Time: 09:03:01
(UTC-07:00)
Language:

Oscar 19 - Orbit

View from above orbital plane
View from above orbital plane
View from above satellite
View from above satellite

Ground track
Ground track

The orbit data is extracted from the following two-line orbital elements,

1 20442U 90005G   18174.07816390  .00000001  00000-0  16602-4 0  9991
2 20442  98.6103 112.5337 0012632 129.1517 231.0792 14.32898478484737
Epoch (UTC): 23 June 2018 01:52:33
Eccentricity: 0.0012632
inclination: 98.6103°
perigee height: 773 km
apogee height: 791 km
right ascension of ascending node: 112.5337°
argument of perigee: 129.1517°
revolutions per day: 14.32898478
mean anomaly at epoch: 231.0792°
orbit number at epoch: 48473

The dashed part of the orbit path shows where the satellite is in the earth's shadow,  

DLR